sat.trackr.live / text

‹ back to catalog

STARLINK-2371

NORAD 47911 · 2021-021BD

PAYLOAD ACTIVE UNKNOWN

§ Identity

Operator
Country
US
Launch date
2021-03-14
Launch site
AFETR
Launch vehicle
Mass (kg)
RCS (m²)

Purposes: comms

External: N2YO · Heavens-Above · Gunter

§ Orbital elements

Epoch: 2026-05-25T01:58:25.410720Z

Period
94.01 min
Inclination
53.1590°
Eccentricity
0.0001300
Mean motion
15.31711083 rev/d
Perigee alt
469.8 km
Apogee alt
471.6 km
Semi-major
6,848.8 km
B*
1.1143e-4
RAAN
285.6812°
Arg perigee
83.2371°
Mean anomaly
276.8778°
Rev number
28,761

§ Raw data

STARLINK-23711 47911U 21021BD  26145.08223855  .00003095  00000+0  11143-3 0  99982 47911  53.1590 285.6812 0001300  83.2371 276.8778 15.31711083287616

JSON: /api/v1/satellites/47911 · /tle

For live sub-satellite position, see the globe view (requires WebGL).

§ Visibility from observer

Set your observer location to see the next 7 days of passes ≥ 10°. The values pass through the URL so the page stays shareable.

No JS? Fill the form by hand. The geolocation button needs JavaScript.